"Pseudo-MPEC" for ZTF02rt

Created 2019 Feb 19 11:18:14 UT using Find_Orb

Click here for an explanation of pseudo-MPECs

 
 Astrometry: 
     ZTF02rt  C2019 02 09.35053109 49 15.50 +24 56 35.9    ~29LI 17.11RUNEOCPI41
     ZTF02rt  C2019 02 09.35087809 49 19.41 +24 55 52.6    ~29LI 17.11RUNEOCPI41
     ZTF02rt  C2019 02 09.35649009 50 24.81 +24 43 51.4    ~29LI 18.47RUNEOCPI41
     ZTF02rt  C2019 02 09.35683709 50 28.87 +24 43 05.9    ~29LI 18.47RUNEOCPI41

Station data:
(I41) Palomar Mountain--ZTF  (N33.357340 W116.859780)  US/California. 1.2-m
   f/2.44 Oschin Schmidt + CCD.

Orbital elements:  ZTF02rt
   Perigee 2019 Feb 8.701329 +/- 36.6 TT = 16:49:54 (JD 2458523.201329)
Epoch 2019 Feb  9.0 TT = JDT 2458523.5                        AutoNEOCP
M   2.70478029 +/- 27               (J2000 equator)
n   9.05605989 +/- 0.421            Peri.   51.80173 +/- 53
a492013.835 +/- 5.79e+7             Node     2.59914 +/- 70
e   0.8439679 +/- 0.242             Incl.   39.37461 +/- 2.6
P  39.75d                  H 33.0   G  0.15   U 12.2  SR
q 76769.9268 +/- 1.95e+7    Q 907257.744 +/- 6.48e+9
From 4 observations 2019 Feb. 9 (9.1 min); mean residual 0".70
Residuals in arcseconds: 
190209 I41  1.1+  .66-    190209 I41  .31-  .48+    
190209 I41  1.1-  .67+    190209 I41  .35+  .49-    

Ephemerides (geocentric):
Date (UTC) HH   RA              Dec         delta   r     elong  mag " sig PA
---- -- -- --  -------------   -----------  ------ ------ -----  --- ---- ---
2019 02 19 11  14 10 52.856   -22 20 35.88  782278 0.9904 111.9 23.9  64d  16
2019 02 19 12  14 11 10.125   -22 23 11.59  783579 0.9904 111.9 23.9  64d  16
2019 02 19 13  14 11 27.346   -22 25 46.68  784872 0.9904 111.8 23.9  64d  16
2019 02 19 14  14 11 44.521   -22 28 21.14  786159 0.9905 111.8 23.9  64d  16
2019 02 19 15  14 12 01.651   -22 30 54.99  787437 0.9905 111.7 23.9  64d  16
2019 02 19 16  14 12 18.735   -22 33 28.24  788709 0.9905 111.7 23.9  64d  16
2019 02 19 17  14 12 35.774   -22 36 00.89  789973 0.9905 111.7 23.9  64d  16
2019 02 19 18  14 12 52.768   -22 38 32.94  791230 0.9905 111.6 23.9  64d  16
2019 02 19 19  14 13 09.719   -22 41 04.40  792479 0.9905 111.6 24.0  64d  16
2019 02 19 20  14 13 26.626   -22 43 35.27  793721 0.9905 111.6 24.0  64d  16
2019 02 19 21  14 13 43.490   -22 46 05.57  794956 0.9905 111.5 24.0  64d  16
2019 02 19 22  14 14 00.312   -22 48 35.30  796183 0.9905 111.5 24.0  64d  16
2019 02 19 23  14 14 17.091   -22 51 04.46  797403 0.9905 111.5 24.0  64d  16
2019 02 20 00  14 14 33.828   -22 53 33.07  798616 0.9905 111.4 24.0  64d  16
2019 02 20 01  14 14 50.524   -22 56 01.11  799822 0.9906 111.4 24.0  64d  16
2019 02 20 02  14 15 07.179   -22 58 28.61  801020 0.9906 111.4 24.0  64d  16
2019 02 20 03  14 15 23.793   -23 00 55.56  802211 0.9906 111.3 24.0  64d  16
2019 02 20 04  14 15 40.368   -23 03 21.97  803395 0.9906 111.3 24.0  64d  16
2019 02 20 05  14 15 56.902   -23 05 47.85  804572 0.9906 111.3 24.0  64d  16
2019 02 20 06  14 16 13.397   -23 08 13.20  805742 0.9906 111.2 24.0  64d  16
2019 02 20 07  14 16 29.853   -23 10 38.02  806904 0.9906 111.2 24.0  64d  16
2019 02 20 08  14 16 46.270   -23 13 02.33  808059 0.9906 111.2 24.0  64d  16
2019 02 20 09  14 17 02.649   -23 15 26.12  809207 0.9906 111.1 24.0  64d  16
2019 02 20 10  14 17 18.990   -23 17 49.41  810348 0.9906 111.1 24.0  64d  16
2019 02 20 11  14 17 35.293   -23 20 12.18  811482 0.9906 111.1 24.0  64d  16
2019 02 20 12  14 17 51.560   -23 22 34.46  812608 0.9907 111.0 24.0  64d  16
2019 02 20 13  14 18 07.789   -23 24 56.25  813728 0.9907 111.0 24.0  64d  16
2019 02 20 14  14 18 23.982   -23 27 17.54  814840 0.9907 111.0 24.0  64d  16
2019 02 20 15  14 18 40.139   -23 29 38.35  815945 0.9907 111.0 24.0  64d  16
2019 02 20 16  14 18 56.260   -23 31 58.68  817043 0.9907 110.9 24.0  64d  16
2019 02 20 17  14 19 12.345   -23 34 18.53  818134 0.9907 110.9 24.0  64d  16
2019 02 20 18  14 19 28.396   -23 36 37.90  819218 0.9907 110.9 24.0  64d  16
2019 02 20 19  14 19 44.412   -23 38 56.81  820295 0.9907 110.8 24.1  64d  16
2019 02 20 20  14 20 00.393   -23 41 15.26  821365 0.9907 110.8 24.1  64d  16
2019 02 20 21  14 20 16.340   -23 43 33.24  822428 0.9907 110.8 24.1  64d  16
2019 02 20 22  14 20 32.253   -23 45 50.78  823484 0.9907 110.7 24.1  64d  16
2019 02 20 23  14 20 48.133   -23 48 07.86  824533 0.9908 110.7 24.1  64d  16
2019 02 21 00  14 21 03.979   -23 50 24.49  825574 0.9908 110.7 24.1  64d  16
2019 02 21 01  14 21 19.793   -23 52 40.68  826609 0.9908 110.7 24.1  64d  16
2019 02 21 02  14 21 35.574   -23 54 56.43  827637 0.9908 110.6 24.1  64d  16
2019 02 21 03  14 21 51.323   -23 57 11.74  828658 0.9908 110.6 24.1  63d  16
2019 02 21 04  14 22 07.040   -23 59 26.63  829671 0.9908 110.6 24.1  63d  16
2019 02 21 05  14 22 22.725   -24 01 41.08  830678 0.9908 110.5 24.1  63d  16
2019 02 21 06  14 22 38.379   -24 03 55.12  831678 0.9908 110.5 24.1  63d  16
2019 02 21 07  14 22 54.001   -24 06 08.73  832671 0.9908 110.5 24.1  63d  16
2019 02 21 08  14 23 09.593   -24 08 21.93  833657 0.9908 110.5 24.1  63d  16
2019 02 21 09  14 23 25.155   -24 10 34.71  834636 0.9908 110.4 24.1  63d  16
2019 02 21 10  14 23 40.686   -24 12 47.09  835608 0.9909 110.4 24.1  63d  16